| time (UTC) | temp F | wind direction | speed knots | gust knots | rain 1hr in | rain 24hr in | rain mn in | humidity % | barometer mb |
| 20260507063513 | 54 | 250 | 0.9 | 5.2 | 0.00 | 0.00 | 0.00 | 77 | 1015.4 |
| 20260507062513 | 52 | 218 | 1.7 | 6.1 | 0.00 | 0.00 | 0.00 | 78 | 1015.3 |
| 20260507053513 | 48 | 309 | 0.0 | 1.7 | 0.00 | 0.00 | 0.00 | 87 | 1015.2 |
| 20260507045513 | 44 | 240 | 0.0 | 0.9 | 0.00 | 0.00 | 0.00 | 93 | 1014.9 |
| 20260507042513 | 40 | 235 | 0.0 | 0.0 | 0.00 | 0.00 | 0.00 | 94 | 1014.7 |
| 20260507041513 | 38 | 307 | 0.0 | 0.0 | 0.00 | 0.00 | 0.00 | 93 | 1014.6 |
| 20260507040513 | 38 | 244 | 0.0 | 0.0 | 0.00 | 0.00 | 0.00 | 93 | 1014.6 |
| 20260507031514 | 39 | 237 | 1.7 | 2.6 | 0.00 | 0.00 | 0.00 | 92 | 1014.3 |
| 20260507025513 | 38 | 236 | 0.0 | 1.7 | 0.00 | 0.00 | 0.00 | 92 | 1014.1 |
| 20260507024514 | 39 | 236 | 0.9 | 1.7 | 0.00 | 0.00 | 0.00 | 92 | 1014.1 |
| 20260507022514 | 38 | 236 | 0.0 | 0.0 | 0.00 | 0.00 | 0.00 | 92 | 1013.9 |
| 20260507021514 | 38 | 236 | 0.0 | 2.6 | 0.00 | 0.00 | 0.00 | 91 | 1013.9 |
| 20260507020513 | 39 | 236 | 0.0 | 1.7 | 0.00 | 0.00 | 0.00 | 91 | 1013.8 |
| 20260507015513 | 39 | 236 | 0.0 | 0.9 | 0.00 | 0.00 | 0.00 | 91 | 1013.7 |
| 20260507014513 | 39 | 236 | 0.0 | 0.0 | 0.00 | 0.00 | 0.00 | 91 | 1013.8 |
| 20260507013513 | 39 | 236 | 0.0 | 1.7 | 0.00 | 0.00 | 0.00 | 90 | 1013.7 |
| 20260507000513 | 44 | 235 | 0.9 | 5.2 | 0.00 | 0.00 | 0.00 | 88 | 1013.4 |
| 20260506235514 | 45 | 211 | 4.3 | 7.0 | 0.00 | 0.00 | 0.00 | 88 | 1013.4 |
| 20260506234514 | 45 | 189 | 2.6 | 6.1 | 0.00 | 0.00 | 0.00 | 88 | 1013.3 |
| 20260506232514 | 45 | 195 | 2.6 | 6.1 | 0.00 | 0.00 | 0.00 | 88 | 1013.4 |
| 20260506230513 | 45 | 187 | 2.6 | 5.2 | 0.00 | 0.00 | 0.00 | 87 | 1013.3 |
| 20260506225514 | 45 | 192 | 2.6 | 5.2 | 0.00 | 0.00 | 0.00 | 87 | 1013.2 |
| 20260506224514 | 45 | 196 | 1.7 | 6.1 | 0.00 | 0.00 | 0.00 | 86 | 1013.3 |
| 20260506222513 | 46 | 168 | 4.3 | 6.1 | 0.00 | 0.00 | 0.00 | 86 | 1013.1 |
| 20260506220514 | 46 | 160 | 2.6 | 7.0 | 0.00 | 0.00 | 0.00 | 85 | 1013.2 |
| 20260506215513 | 46 | 164 | 2.6 | 7.8 | 0.00 | 0.00 | 0.00 | 85 | 1013.1 |
| 20260506214513 | 46 | 166 | 2.6 | 7.8 | 0.00 | 0.00 | 0.00 | 85 | 1013.1 |
| 20260506211514 | 46 | 183 | 4.3 | 7.0 | 0.00 | 0.00 | 0.00 | 83 | 1013.0 |
| 20260506204513 | 47 | 161 | 2.6 | 5.2 | 0.00 | 0.00 | 0.00 | 80 | 1012.8 |
| 20260506203513 | 47 | 202 | 2.6 | 7.8 | 0.00 | 0.00 | 0.00 | 79 | 1012.7 |
| 20260506202513 | 48 | 198 | 3.5 | 7.8 | 0.00 | 0.00 | 0.00 | 78 | 1012.6 |
| 20260506201513 | 48 | 192 | 3.5 | 7.0 | 0.00 | 0.00 | 0.00 | 77 | 1012.6 |
| 20260506194512 | 49 | 170 | 2.6 | 8.7 | 0.00 | 0.00 | 0.00 | 74 | 1012.4 |
| 20260506193513 | 50 | 184 | 3.5 | 8.7 | 0.00 | 0.00 | 0.00 | 73 | 1012.2 |
| 20260506191512 | 51 | 177 | 5.2 | 7.8 | 0.00 | 0.00 | 0.00 | 69 | 1012.0 |
| 20260506183514 | 52 | 194 | 6.1 | 10.4 | 0.00 | 0.00 | 0.00 | 60 | 1011.6 |
| 20260506181513 | 53 | 200 | 4.3 | 8.7 | 0.00 | 0.00 | 0.00 | 58 | 1011.3 |
| 20260506175512 | 54 | 205 | 6.1 | 7.8 | 0.00 | 0.00 | 0.00 | 54 | 1011.1 |
| 20260506171512 | 56 | 204 | 5.2 | 10.4 | 0.00 | 0.00 | 0.00 | 54 | 1010.9 |
| 20260506170513 | 56 | 210 | 6.1 | 8.7 | 0.00 | 0.00 | 0.00 | 55 | 1010.9 |
| 20260506164512 | 56 | 226 | 6.1 | 8.7 | 0.00 | 0.00 | 0.00 | 58 | 1010.9 |
| 20260506160512 | 57 | 57 | 3.5 | 10.4 | 0.00 | 0.00 | 0.00 | 59 | 1010.7 |
| 20260506153512 | 57 | 12 | 4.3 | 10.4 | 0.00 | 0.00 | 0.00 | 61 | 1010.8 |
| 20260506152512 | 58 | 19 | 2.6 | 8.7 | 0.00 | 0.00 | 0.00 | 59 | 1010.7 |
| 20260506145512 | 60 | 357 | 4.3 | 8.7 | 0.00 | 0.00 | 0.00 | 56 | 1010.7 |
| 20260506144513 | 60 | 2 | 4.3 | 8.7 | 0.00 | 0.00 | 0.00 | 54 | 1010.7 |
| 20260506143512 | 59 | 15 | 3.5 | 10.4 | 0.00 | 0.00 | 0.00 | 58 | 1010.7 |
| 20260506142512 | 58 | 7 | 6.1 | 11.3 | 0.00 | 0.00 | 0.00 | 59 | 1010.7 |
| 20260506140512 | 59 | 11 | 2.6 | 11.3 | 0.00 | 0.00 | 0.00 | 60 | 1010.6 |
| 20260506133513 | 58 | 12 | 4.3 | 12.2 | 0.00 | 0.00 | 0.00 | 59 | 1010.4 |
| 20260506131513 | 60 | 354 | 4.3 | 11.3 | 0.00 | 0.00 | 0.00 | 58 | 1010.4 |
| 20260506125513 | 61 | 357 | 6.1 | 12.2 | 0.00 | 0.00 | 0.00 | 56 | 1010.3 |
| 20260506123513 | 60 | 357 | 7.0 | 13.0 | 0.00 | 0.00 | 0.00 | 53 | 1010.2 |
| 20260506121513 | 61 | 7 | 5.2 | 13.9 | 0.00 | 0.00 | 0.00 | 55 | 1010.3 |
| 20260506113514 | 61 | 0 | 4.3 | 8.7 | 0.00 | 0.00 | 0.00 | 53 | 1010.4 |
| 20260506112513 | 60 | 358 | 2.6 | 8.7 | 0.00 | 0.00 | 0.00 | 55 | 1010.5 |
| 20260506110512 | 60 | 18 | 2.6 | 10.4 | 0.00 | 0.00 | 0.00 | 55 | 1010.6 |
| 20260506104512 | 59 | 60 | 4.3 | 7.8 | 0.00 | 0.00 | 0.00 | 53 | 1010.6 |
| 20260506103513 | 58 | 33 | 4.3 | 10.4 | 0.00 | 0.00 | 0.00 | 55 | 1010.6 |
| 20260506102513 | 59 | 25 | 4.3 | 10.4 | 0.00 | 0.00 | 0.00 | 54 | 1010.7 |
| 20260506100512 | 59 | 8 | 4.3 | 8.7 | 0.00 | 0.00 | 0.00 | 55 | 1010.8 |
| 20260506095513 | 58 | 351 | 4.3 | 8.7 | 0.00 | 0.00 | 0.00 | 57 | 1010.7 |
| 20260506094512 | 58 | 20 | 2.6 | 7.8 | 0.00 | 0.00 | 0.00 | 58 | 1010.8 |
| 20260506092513 | 57 | 5 | 3.5 | 8.7 | 0.00 | 0.00 | 0.00 | 53 | 1010.8 |
| 20260506091513 | 59 | 333 | 4.3 | 7.8 | 0.00 | 0.00 | 0.00 | 51 | 1010.8 |
| 20260506090512 | 59 | 347 | 2.6 | 7.8 | 0.00 | 0.00 | 0.00 | 51 | 1010.7 |
| 20260506085512 | 60 | 27 | 5.2 | 11.3 | 0.00 | 0.00 | 0.00 | 49 | 1010.7 |
| 20260506084513 | 59 | 18 | 4.3 | 7.8 | 0.00 | 0.00 | 0.00 | 45 | 1010.7 |
| 20260506083512 | 59 | 19 | 3.5 | 7.8 | 0.00 | 0.00 | 0.00 | 48 | 1010.7 |
| 20260506081513 | 59 | 42 | 2.6 | 7.8 | 0.00 | 0.00 | 0.00 | 46 | 1010.6 |
| 20260506073513 | 57 | 41 | 3.5 | 10.4 | 0.00 | 0.00 | 0.00 | 48 | 1010.7 |
| 20260506070512 | 56 | 18 | 2.6 | 7.0 | 0.00 | 0.00 | 0.00 | 50 | 1010.7 |